User: anonymous   Login
Location: Ellerstadt
(49.4644°N, 8.2615°E)
Time: 14:23:28
(UTC+00:00)
Language:

SL-16 R/B - Orbit

View from above orbital plane
View from above orbital plane
View from above satellite
View from above satellite

Ground track
Ground track

The orbit data is extracted from the following two-line orbital elements,

1 31793U 07029B   21137.79215153 -.00000305  00000-0 -13416-3 0  9996
2 31793  70.9759 264.0294 0002090 261.1640 206.5472 14.14443626716915
Epoch (UTC): 17 May 2021 19:00:41
Eccentricity: 0.0002090
inclination: 70.9759°
perigee height: 842 km
apogee height: 846 km
right ascension of ascending node: 264.0294°
argument of perigee: 261.1640°
revolutions per day: 14.14443626
mean anomaly at epoch: 206.5472°
orbit number at epoch: 71691

The dashed part of the orbit path shows where the satellite is in the earth's shadow,  

DLR